Regional Weather Roundup
Issued by NWS

Home | Current Version | Previous Version | Graphics & Text | Print | Product List | Glossary On
Versions: 1 2 3 4 5 6 7 8 9 10 11 12 13 14 15 16 17 18 19 20 21 22 23 24 25 26 27 28 29 30 31 32 33 34 35 36 37 38 39 40 41 42 43 44 45 46 47 48 49 50
000
ASUS45 KABQ 222001
RWRNM
NEW MEXICO REGIONAL WEATHER ROUNDUP
NATIONAL WEATHER SERVICE ALBUQUERQUE NM
100 PM MST WED FEB 22 2017

NOTE: "FAIR" MEANS FEW OR NO CLOUDS BELOW 12,000 FEET AGL WITH NO
       SIGNIFICANT WEATHER OR OBSTRUCTIONS TO VISION.

      THIS PRODUCT IS RELEASED AS TWO VERSIONS.  ONE VERSION NEAR
      THE TOP OF THE HOUR CONTAINING PRELIMINARY DATA FROM ALBUQUERQUE
      AND OTHER STATIONS.  A FINAL VERSION WITH ADDITIONAL DATA IS
      ISSUED ABOUT 10 MINUTES AFTER THE HOUR.

NMZ501-503-504-510>518-222100-
NORTHWEST PLATEAU/NORTHCENTRAL MOUNTAINS

CITY           SKY/WX    TMP DP  RH WIND       PRES   REMARKS
FARMINGTON     FAIR      60  32  34 SW13      29.95F
LOS ALAMOS     FAIR      55  26  32 SW12G22   30.06F
SANTA FE       FAIR      59  35  40 SW12G20   30.03F
TAOS             N/A     52  28  40 NW8       30.06F
ANGEL FIRE     CLOUDY    47  25  42 W12G20    30.08F

$$
NMZ402-403-502-505>509-222100-
WESTCENTRAL MOUNTAINS/SOUTHWEST MOUNTAINS

CITY           SKY/WX    TMP DP  RH WIND       PRES   REMARKS
GALLUP         PTSUNNY   55  32  41 SW18G32   30.05F
GRANTS         FAIR      60  32  35 W22G31    30.07F
SILVER CITY    FAIR      70  32  24 W12G18    30.08F

$$
NMZ407-409-411-412-222100-
SOUTHERN DESERTS

CITY           SKY/WX    TMP DP  RH WIND       PRES   REMARKS
DEMING         FAIR      74  33  22 SW10G16   30.03F
LAS CRUCES     FAIR      73  31  21 W12       30.05F
HOLLOMAN AFB   FAIR      73  33  23 S10       30.04F
ALAMOGORDO     FAIR      73  36  25 S9        30.02F
T OR C         FAIR      71  33  24 S16       30.00F

$$
NMZ519>523-222100-
CENTRAL VALLEYS/CENTRAL HIGHLANDS

CITY           SKY/WX    TMP DP  RH WIND       PRES   REMARKS
ALBUQUERQUE    PTSUNNY   61  33  35 CALM      30.02F
DOUBLE EAGLE   PTSUNNY   61  36  39 S7        30.04F
MORIARTY ARPT  FAIR      65  32  29 W16G23    30.05F
CLINES CORNERS NOT AVBL
BELEN          FAIR      66  30  26 CALM      30.01F
SOCORRO        FAIR      71  32  23 SE7       29.99F

$$
NMZ524>526-539-540-222100-
SOUTHCENTRAL MOUNTAINS

CITY           SKY/WX    TMP DP  RH WIND       PRES   REMARKS
RUIDOSO        NOT AVBL

$$
NMZ527>531-222100-
NORTHEAST HIGHLANDS/NORTHEAST PLAINS

CITY           SKY/WX    TMP DP  RH WIND       PRES   REMARKS
RATON          FAIR      65   4   9 W29G40    29.92F
CLAYTON        FAIR      74  10   8 W26G38    29.86F

$$
NMZ532>537-222100-
EASTCENTRAL PLAINS

CITY           SKY/WX    TMP DP  RH WIND       PRES   REMARKS
TUCUMCARI      FAIR      80  27  14 W25G35    29.86F
CANNON AFB     SUNNY     76  33  20 W17G29    29.90F
CLOVIS AIRPORT FAIR      77  36  22 W18G26    29.91F

$$
NMZ028-029-538-222100-
SOUTHEAST PLAINS

CITY           SKY/WX    TMP DP  RH WIND       PRES   REMARKS
ROSWELL        FAIR      82  29  14 S14G22    29.93F
ARTESIA        FAIR      81  28  15 S13G20    29.92F
CARLSBAD       FAIR      84  22  10 S12       29.91F
HOBBS          SUNNY     81  28  15 W9        29.95F


$$



USA.gov is the U.S. government's official web portal to all federal, state and local government web resources and services.